Volver al catálogo

OPS 7245

ActivoNavegaciónLEO
NORAD 11720·PAYLOAD·🇺🇸 United States

Lanzado Mar 3, 1980 desde Vandenberg Space Force Base

Loading…

Próximos Pases (próximas 24 horas)

TLE

ObsoletoSource: Space-Track

Época: Jun 4, 1980, 10:36 UTC

1 11720U 80019  A 80156.44170566  .00000027 +00000-0 +02391-4 0  9990
2 11720 063.4783 147.0798 0072826 154.3421 206.1245 13.39685345012465

Sigue OPS 7245 en tiempo real con AllMySat

Download on the App Store